Flag for Australia Weather past 2 weeks in Tamworth, New South Wales, Australia

Now
55 °F

Overcast.


Feels Like: 52 °F
Forecast: 45 / 69 °F
Wind: 14 mph from South

Location: Tamworth Airport

Current Time: Aug 30, 2014 at 8:28:47 PM

Latest Report: Aug 30, 2014 at 8:00 PM


Visibility: N/A

Pressure: 30.15 "Hg

Humidity: 72%

Dew point: 46 °F

Location of TamworthLocation

Historic Weather in Tamworth — Graph

°F

Tamworth temperature yesterday

Maximum temperature yesterday: 63 °F (at 1:30 PM)
Minimum temperature yesterday: 37 °F (at 6:00 AM)
Average temperature yesterday: 51 °F

Past Weeks' High & Low Weather Summary

 TemperatureHumidityPressure
High68 °F (Aug 24, 2:30 PM)94% (Aug 17, 1:00 AM)30.39 "Hg (Aug 17, 1:00 AM)
Low37 °F (Aug 29, 6:00 AM)30% (Aug 25, 2:00 PM)29.74 "Hg (Aug 17, 2:30 PM)
Average54 °F69%30.14 "Hg
* Reported Aug 15 7:00 PM — Aug 30 7:00 PM, Tamworth, Weather by CustomWeather, © 2014

Note: Actual official high and low records may vary slightly from our data, if they occured in-between our weather recording intervals... More about our weather records

Advertising

Tamworth weather history for previous 24 hours

 ConditionsComfort  
Time TempWeatherWind HumidityBarometerVisibility
7:00 PM
Aug 30
55 °FPassing clouds.10 mph72%30.12 "HgN/A
6:00 PM55 °FClear.10 mph72%30.12 "HgN/A
5:00 PM59 °FClear.14 mph63%30.12 "HgN/A
4:00 PM61 °FSunny.17 mph55%30.12 "HgN/A
3:30 PM63 °FSunny.15 mph59%30.12 "HgN/A
3:00 PM63 °FSunny.16 mph56%30.12 "HgN/A
2:30 PM64 °FScattered clouds.15 mph56%30.12 "HgN/A
2:00 PM63 °FBroken clouds.15 mph56%30.12 "HgN/A
1:00 PM63 °FPartly sunny.10 mph52%30.15 "HgN/A
12:30 PM63 °FMostly cloudy.8 mph52%30.15 "HgN/A
12:00 PM61 °FScattered clouds.10 mph59%30.18 "HgN/A
11:00 AM59 °FScattered clouds.8 mph59%30.18 "HgN/A
10:30 AM59 °FScattered clouds.7 mph59%30.21 "HgN/A
10:00 AM57 °FScattered clouds.5 mph63%30.21 "HgN/A
9:30 AM55 °FScattered clouds.5 mph63%30.21 "HgN/A
9:00 AM54 °FScattered clouds.6 mph67%30.21 "HgN/A
8:30 AM50 °FScattered clouds.5 mph76%30.21 "HgN/A
8:00 AM48 °FPartly sunny.3 mph76%30.21 "HgN/A
7:30 AM46 °FScattered clouds.No wind82%30.21 "HgN/A
7:00 AM43 °FOvercast.3 mph87%30.21 "HgN/A
5:00 AM43 °FPassing clouds.3 mph87%30.18 "HgN/A
4:30 AM39 °FClear.6 mph81%30.15 "HgN/A
4:00 AM39 °FClear.5 mph81%30.15 "HgN/A
3:30 AM39 °FClear.8 mph81%30.15 "HgN/A
3:00 AM43 °FClear.6 mph76%30.18 "HgN/A
2:30 AM45 °FClear.10 mph76%30.18 "HgN/A
2:00 AM43 °FClear.9 mph81%30.18 "HgN/A
1:30 AM46 °FClear.10 mph71%30.21 "HgN/A
1:00 AM46 °FClear.7 mph71%30.21 "HgN/A
12:30 AM46 °FClear.6 mph76%30.21 "HgN/A
12:00 AM46 °FClear.7 mph76%30.21 "HgN/A
11:30 PM
Aug 29
45 °FClear.5 mph81%30.21 "HgN/A
11:00 PM48 °FClear.5 mph76%30.21 "HgN/A
10:00 PM46 °FClear.3 mph82%30.21 "HgN/A
9:00 PM48 °FClear.9 mph76%30.21 "HgN/A
8:00 PM46 °FClear.7 mph76%30.21 "HgN/A
Weather by CustomWeather, © 2014

See weather overviewHow to use our weather pages